www.pogodaiklimat.ru

Погода и климат >> Архив погоды >> Россия >> Дагестан >> Изберг


ПОГОДА в Изберге

  • Прогноз погоды в Изберге
  • Монитор погоды в Изберге
  • Климат города

АРХИВ ПОГОДЫ в Изберге

Время (UTC), дата Ветер
(напр.,м/с)
 
Видим.   Явления Облачность Т
(С)
Тd
(С)
f
(%)
Тe
(С)
Тes
(С)
Комфортность P
(гПа)
Po
(гПа)
Тmin
(С)
Tmax
(С)
R
(мм)
S
(см)
06 17.03 В 3 50 км 6/1 600 м
[Cu med, cong Ac trans Ci fib]
+7.7 +5.1 84 +5 +8 1015.2 1017.5
09 17.03 С 4 50 км 3/3 600 м
[Cu med, cong]
+8.6 +5.5 81 +6 +11 1015.3 1017.5
12 17.03 СВ 1 20 км 4/3 600 м
[Cu med, cong Ac trans Ci fib]
+10.5 +4.2 65 +10 +14 1015.6 1017.8
15 17.03 ЮВ 2 20 км 8/3 600 м
[Cb calv Ac trans Ci fib]
+7.7 +5.4 85 +6 +6 1016.4 1018.6 +10.7
18 17.03 ЮЗ 1 20 км 8/0
[Ac trans Ci]
+6.1 +3.3 82 +5 +5 1016.3 1018.5
21 17.03 ЮЗ 3 20 км 6/0
[Ci]
+4.6 +2.5 86 +1 +1 1015.4 1017.6
00 18.03 ЮЗ 2 20 км 8/0
[Ac trans Ci]
+4.9 +1.9 81 +2 +2 1014.3 1016.6
03 18.03 Ю 1 20 км 10/0
[Ac lent Cs]
+3.3 +1.5 88 +2 +2 1014.0 1016.3 +3.1
06 18.03 ЮВ 3 20 км 3/1 600 м
[Cu med, cong Ac lent]
+7.5 +4.9 84 +5 +9 1013.7 1016.0
09 18.03 В 6 20 км 3/1 600 м
[Cu hum Ci fib]
+8.7 +4.7 76 +5 +9 1011.9 1014.1
12 18.03 В 3 20 км 10/0
[As trans]
+6.8 +5.4 91 +4 +5 1009.6 1011.8
15 18.03 С 2 20 км 10/6 600 м
[Cu hum Ac trans]
+6.9 +5.2 89 +5 +5 1009.4 1011.6 +9.4
18 18.03 СЗ 5 20 км 10/4 600 м
[Cu hum Ac und]
+7.8 +5.2 84 +4 +4 1009.8 1012.0
21 18.03 СЗ 7-11
{13}
20 км 10/3 600 м
[Cu hum Ac und]
+7.1 +5.8 91 +2 +2 1009.1 1011.3
00 19.03 СЗ 8-11
{12}
20 км 10/0
[Ac und]
+7.0 +5.9 93 +2 +2 1009.7 1011.9
03 19.03 СЗ 6
{14}
20 км 10/10 600 м
[Cb calv]
+7.2 +5.1 86 +3 +3 1012.1 1014.4 +6.6
06 19.03 СЗ 7-11
{11}
20 км 3/1 600 м
[Cu hum Ac lent]
+8.3 +5.6 83 +4 +5 1012.1 1014.3
09 19.03 СЗ 4 4000 м дымка 6/0
[Ac trans Cs]
+7.2 +5.9 91 +4 +10 1012.7 1015.0
12 19.03 С 5 20 км 10/4 600 м
[Cu hum Ac As]
+6.7 +5.2 90 +2 +3 1011.6 1013.8
15 19.03 СВ 1 500 м туман ?/? +4.6 +4.1 97 +3 +3 1011.5 1013.7 +9.6
18 19.03 В 1 500 м туман ?/? +4.1 +3.7 97 +2 +2 1011.0 1013.3
21 19.03 Ю 2 500 м туман ?/? +3.9 +3.6 98 +1 +1 1008.7 1010.9
00 20.03 Ю 2 500 м туман ?/? +3.7 +3.4 98 +1 +1 1006.4 1008.7
03 20.03 Ю 2 4000 м дымка {туман} 10/0
[Ac As]
+3.4 +3.2 99 0 0 1005.6 1007.8 +3.3
06 20.03 ЮВ 4 4000 м дымка {туман} 10/10 600 м
[St]
+5.0 +4.6 97 +1 +1 1004.4 1006.7
09 20.03 ЮВ 3 4000 м слабая морось 10/10 600 м
[St]
+6.2 +4.7 90 +3 +3 1002.9 1005.1
12 20.03 В 1 10 км {морось} 10/10 600 м
[St]
+6.7 +4.8 88 +6 +6 1002.7 1004.9
15 20.03 С 4 20 км 10/10 600 м
[Cu Sc]
+6.7 +5.0 89 +3 +3 1004.7 1006.9 +7.1 0.0
18 20.03 СЗ 6
{10}
20 км 10/10 600 м
[Cu hum]
+7.3 +4.9 85 +3 +3 1006.3 1008.5
21 20.03 СЗ 5
{11}
20 км 10/10 600 м
[Cb calv]
+7.3 +4.5 82 +3 +3 1006.9 1009.1
00 21.03 СЗ 7-13
{15}
20 км 9/8 600 м
[Cu hum Ac trans]
+8.1 +2.9 70 +4 +4 1007.5 1009.7
03 21.03 СЗ 10-15
{20}
50 км 9/3 600 м
[Cu hum Ac cast Ci]
+8.4 -0.4 54 +4 +4 1008.0 1010.2 +6.6
06 21.03 СЗ 9-16
{19}
50 км 8/3 600 м
[Cu hum Ac trans Cc]
+10.2 -1.7 43 +7 +7 1008.7 1010.9
09 21.03 СЗ 9-14
{18}
50 км 10/6 600 м
[Cu hum Ac cast Ci fib]
+11.1 -0.7 44 +8 +8 1009.0 1011.2
12 21.03 СЗ 8-13
{16}
20 км 10/3
[Cu hum Ac lent Cs]
+11.0 +0.6 49 +8 +8 1009.4 1011.6
15 21.03 СЗ 9-14
{16}
20 км 9/6 600 м
[Cu hum Ac lent]
+10.5 -1.1 44 +7 +7 1011.2 1013.4 +11.3
18 21.03 ЮЗ 1
{14}
20 км 8/0
[Ac und Ci fib]
+8.7 -0.5 52 +9 +9 1013.2 1015.4
21 21.03 Ю 3 20 км ясно +6.1 +0.5 67 +3 +3 1013.3 1015.5
00 22.03 ЮЗ 1 20 км ясно +4.7 +0.3 73 +4 +4 1014.0 1016.2
03 22.03 ЮЗ 3 50 км 10/6 600 м
[Cb calv Ac lent Ci fib]
+5.7 +0.5 69 +3 +3 1015.5 1017.8 +3.9
06 22.03 ЮВ 5 50 км 9/1 600 м
[Cu hum Ac trans Ci fib]
+9.1 +3.9 70 +6 +8 1016.5 1018.7
09 22.03 ЮВ 4 20 км 9/1 600 м
[Cu med, cong Ac lent Ci fib]
+9.4 +4.3 70 +7 +11 1015.8 1018.0
12 22.03 В 2 20 км 10/9 600 м
[Cu hum Ac trans]
+7.5 +3.8 77 +6 +6 1015.9 1018.1
15 22.03 штиль 0 20 км 10/10 600 м
[Cu Sc]
+7.7 +2.7 71 +7 +7 1017.5 1019.7 +9.9
18 22.03 СЗ 5 10 км слабый ливневой дождь 10/10 600 м
[Cb cap]
+5.7 +4.0 89 +1 +1 1019.9 1022.1
21 22.03 ЮЗ 2 20 км {ливн. осадки} 10/10 600 м
[Cb calv]
+5.9 +3.5 85 +3 +3 1019.2 1021.4
00 23.03 штиль 0 20 км {ливн. осадки} 10/3 600 м
[Cu hum Ac As]
+5.5 +3.9 89 +4 +4 1019.2 1021.4
03 23.03 СВ 2 20 км 10/10 600 м
[Cb calv]
+5.5 +4.1 91 +3 +3 1020.3 1022.6 +5.3 0.4
06 23.03 СВ 4 20 км 10/3 600 м
[Cb calv Ac As]
+6.1 +4.5 89 +2 +3 1021.1 1023.4
09 23.03 С 6 20 км 10/10 600 м
[Cb calv]
+3.9 +2.1 88 -2 -2 1022.5 1024.7
12 23.03 С 5 20 км 10/10 600 м
[Cb calv]
+3.8 +1.9 87 -1 -1 1023.4 1025.7
15 23.03 С 6 20 км {ливн. осадки} 10/10 600 м
[Cb calv]
+3.3 +1.2 86 -2 -2 1024.9 1027.1 +6.6 0.0
18 23.03 СЗ 4 20 км {ливн. осадки} 10/10 600 м
[Cb calv]
+3.6 +1.2 84 -1 -1 1026.3 1028.6
21 23.03 ЮЗ 1 10 км слабый ливневой дождь 10/10 600 м
[Cb cap]
+3.4 +1.4 87 +2 +2 1026.8 1029.1
00 24.03 штиль 0 н/о н/о +3.4 +1.7 89 +2 +2 1026.7 1029.0
03 24.03 ЮЗ 1 20 км в посл. час ливневой дождь 10/10 600 м
[Cb calv]
+3.4 +2.1 91 +2 +2 1027.5 1029.8 +3.2 0.9

 

Местоположение метеостанции Изберг (Дагестан, Россия): широта 42.53 долгота 47.92 высота над уровнем моря -16 м.

В архиве по умолчанию представлена погода в Изберге за последнюю неделю. Архивные данные за месяц целиком и за предыдущие месяцы, начиная с января 2011 года, Вы можете получить, выбрав интересующий диапазон дат из раскрывающегося списка и нажав кнопку "Ввод!".

Внимание! Время в таблицах - всемирное. Для получения местного времени необходимо прибавить поправку, которая в Изберге равна 3 ч.

Смотрите также архив погоды в соседних городах и на ближайших метеорологических станциях:

Погода в Сергокале (Дагестан, Россия) (22 км)
Погода в Дербенте (Дагестан, Россия) (60 км)
Погода в Махачкале (Дагестан, Россия) (65 км)
Погода в Куппе (Дагестан, Россия) (68 км)
Погода в Буйнакске (Дагестан, Россия) (73 км)
Погода в Гунибе (Дагестан, Россия) (79 км)
Погода в Кумухе (Дагестан, Россия) (80 км)
Погода в Касумкенте (Дагестан, Россия) (98 км)
Погода в Хунзахе (Дагестан, Россия) (100 км)
Погода в Ахты (Дагестан, Россия) (119 км)

Пояснения к столбцам:

Ветер - указаны скорость ветра в м/с - средняя за 10 мин, порывы в срок и между сроками (в фигурных скобках) и направление, откуда дует ветер: С - северный, СВ - северо-восточный, В - восточный, ЮВ - юго-восточный, Ю - южный, ЮЗ - юго-западный, З - западный, СЗ - северо-западный.
Видимость - горизонтальная дальность видимости в метрах или километрах. При видимости от 1 до 10 км при отсутствии осадков обычно наблюдается дымка, при ухудшении видимости до 1 км и менее - туман. В сухую погоду видимость может ухудшаться дымом, пылью или мглою.
Явления - указаны атмосферные явления, наблюдавшиеся в срок или в последний час перед сроком; фигурными скобками обозначены явления, наблюдавшиеся между сроками (за 1-3 часа до срока); квадратными скобками обозначены град или гололедные отложения с указанием их диаметра в мм.
Облачность - указаны через наклонную черту общая и нижняя облачность в баллах и высота нижней границы облаков в метрах; квадратными скобками обозначены формы облаков: Ci - перистые, Cs - перисто-слоистые, Cc - перисто-кучевые, Ac - высококучевые, As - высокослоистые, Sc - слоисто-кучевые, Ns - слоисто-дождевые, Cu - кучевые, Cb - кучево-дождевые. Подробнее классификацию облаков см. в Атласе облаков (PDF).
T - Температура воздуха - температура, измеренная на высоте 2 м над землей.
Td - Температура точки росы - температура, при понижении до которой содержащийся в воздухе водяной пар достигнет насыщения.
f - Относительная влажность воздуха - влажноcть воздуха, измеренная на высоте 2 м над землей.
Te - Эффективная температура - температура, которую ощущает одетый по сезону человек в тени. Характеристика душности погоды. При расчете учитывается влияние влажности воздуха и скорости ветра на теплоощущения человека.
Tes - Эффективная температура на солнце - температура, которую ощущает человек, с поправкой на солнечный нагрев. Характеристика знойности погоды. Зависит от высоты солнца над горизонтом, облачности и скорости ветра. Ночью, в пасмурную погоду, а также при ветре 12 м/с и более поправка равна нулю.
P - Атмосферное давление - приведенное к уровню моря атмосферное давление.
Po - Атмосферное давление - измеренное на уровне метеостанции атмосферное давление.
Tmin - Минимальная температура - минимум температуры воздуха на высоте 2 м над землей.
Tmax - Максимальная температура - максимум температуры воздуха на высоте 2 м над землей.
R - Количество осадков - Количество выпавших осадков, мм. При наведении курсора мыши на число - период времени, за который выпало указанное количество осадков.
S - Снежный покров - Высота снежного покрова, см. При наведении курсора мыши на число - состояние снежного покрова и степень покрытия местности в баллах.